EW0890 Weather Reports


time (UTC)temp
F
wind
direction
speed
knots
gust
knots
rain 1hr
in
rain 24hr
in
rain mn
in
humidity
%
barometer
mb
20260901104600 72 288 0.9 2.6 0.00 0.00 0.00 91 1015.4
20260901104530 72 299 0.9 2.6 0.00 0.00 0.00 91 1015.3
20260901104016 72 276 0.9 2.6 0.00 0.00 0.00 91 1015.3
20260901103516 72 260 0.9 1.7 0.00 0.00 0.00 90 1015.4
20260901103109 72 278 0.9 2.6 0.00 0.00 0.00 90 1015.4
20260901103032 72 263 0.9 2.6 0.00 0.00 0.00 90 1015.5
20260901102517 72 301 0.9 2.6 0.00 0.00 0.00 90 1015.4
20260901102015 73 278 0.0 1.7 0.00 0.00 0.00 89 1015.4
20260901101603 73 289 0.0 2.6 0.00 0.00 0.00 89 1015.5
20260901101531 73 286 0.0 2.6 0.00 0.00 0.00 88 1015.4
20260901101020 73 259 0.9 2.6 0.00 0.00 0.00 88 1015.5
20260901100508 73 258 0.9 2.6 0.00 0.00 0.00 88 1015.5
20260901100108 73 259 0.9 2.6 0.00 0.00 0.00 89 1015.5
20260901100027 73 240 0.9 2.6 0.00 0.00 0.00 89 1015.4
20260901095517 73 264 0.9 2.6 0.00 0.00 0.00 89 1015.4
20260901095012 73 284 0.9 2.6 0.00 0.00 0.00 89 1015.4
20260901094601 73 258 0.9 3.5 0.00 0.00 0.00 89 1015.3
20260901094526 73 295 0.9 2.6 0.00 0.00 0.00 89 1015.3
20260901094015 73 257 0.9 3.5 0.00 0.00 0.00 88 1015.2
20260901093514 73 272 0.9 4.3 0.00 0.00 0.00 88 1015.2
20260901093106 73 284 0.9 4.3 0.00 0.00 0.00 88 1015.2
20260901093031 73 267 0.9 4.3 0.00 0.00 0.00 88 1015.2
20260901092518 73 264 0.9 2.6 0.00 0.00 0.00 88 1015.2
20260901092019 73 292 0.9 2.6 0.00 0.00 0.00 88 1015.2
20260901091606 73 289 0.9 2.6 0.00 0.00 0.00 88 1015.3
20260901091532 74 274 0.9 2.6 0.00 0.00 0.00 87 1015.2
20260901091018 74 256 0.9 2.6 0.00 0.00 0.00 87 1015.2
20260901090518 74 278 0.9 3.5 0.00 0.00 0.00 87 1015.2
20260901090104 74 275 0.9 3.5 0.00 0.00 0.00 87 1015.3
20260901090041 74 278 0.9 3.5 0.00 0.00 0.00 87 1015.2
20260901085507 74 249 0.9 2.6 0.00 0.00 0.00 87 1015.2
20260901085007 74 295 0.9 2.6 0.00 0.00 0.00 87 1015.2
20260901084604 74 270 0.9 2.6 0.00 0.00 0.00 87 1015.3
20260901084524 74 281 0.9 2.6 0.00 0.00 0.00 87 1015.2
20260901084011 74 300 0.9 2.6 0.00 0.00 0.00 87 1015.1
20260901083512 74 250 0.9 2.6 0.00 0.00 0.00 87 1015.2
20260901083101 74 277 0.9 2.6 0.00 0.00 0.00 87 1015.3
20260901083036 74 258 0.9 2.6 0.00 0.00 0.00 87 1015.2
20260901082515 74 283 0.9 2.6 0.00 0.00 0.00 87 1015.2
20260901082015 74 222 0.9 2.6 0.00 0.00 0.00 87 1015.3
20260901081603 74 274 0.9 2.6 0.00 0.00 0.00 87 1015.3
20260901081532 74 283 0.9 2.6 0.00 0.00 0.00 87 1015.2
20260901081013 74 312 0.9 2.6 0.00 0.00 0.00 87 1015.3
20260901080518 74 290 1.7 2.6 0.00 0.00 0.00 87 1015.2
20260901080112 74 288 1.7 2.6 0.00 0.00 0.00 87 1015.2
20260901080034 74 266 0.9 2.6 0.00 0.00 0.00 87 1015.2
20260901075519 74 281 1.7 2.6 0.00 0.00 0.00 87 1015.3
20260901075017 74 248 0.9 2.6 0.00 0.00 0.00 87 1015.2
20260901074602 74 278 1.7 2.6 0.00 0.00 0.00 88 1015.3
20260901074533 74 281 1.7 2.6 0.00 0.00 0.00 88 1015.2
20260901074008 74 257 0.9 2.6 0.00 0.00 0.00 88 1015.3
20260901073510 74 248 0.9 4.3 0.00 0.00 0.00 88 1015.2
20260901073105 74 289 1.7 4.3 0.00 0.00 0.00 88 1015.3
20260901073036 74 283 1.7 4.3 0.00 0.00 0.00 88 1015.2
20260901072516 74 256 0.9 2.6 0.00 0.00 0.00 88 1015.2
20260901072015 74 265 0.9 2.6 0.00 0.00 0.00 88 1015.2
20260901071605 74 271 0.9 2.6 0.00 0.00 0.00 88 1015.3
20260901071530 74 283 0.9 2.6 0.00 0.00 0.00 88 1015.2
20260901071005 74 284 0.9 4.3 0.00 0.00 0.00 88 1015.2
20260901070504 74 266 0.9 4.3 0.00 0.00 0.00 87 1015.2
20260901070104 74 242 0.9 4.3 0.00 0.00 0.00 87 1015.2
20260901070019 74 271 0.9 4.3 0.00 0.00 0.00 87 1015.2
20260901065506 74 289 0.9 2.6 0.00 0.00 0.00 87 1015.2
20260901065006 75 281 0.9 2.6 0.00 0.00 0.00 86 1015.2
20260901064605 75 309 0.9 2.6 0.00 0.00 0.00 86 1015.4
20260901064527 75 285 0.9 2.6 0.00 0.00 0.00 86 1015.3
20260901064010 75 276 0.9 3.5 0.00 0.00 0.00 86 1015.3
20260901063509 75 248 0.9 3.5 0.00 0.00 0.00 86 1015.3
20260901063115 75 277 0.9 2.6 0.00 0.00 0.00 86 1015.3
20260901063023 75 288 0.9 2.6 0.00 0.00 0.00 86 1015.2
20260901062012 75 302 1.7 2.6 0.00 0.00 0.00 85 1015.2
20260901061617 75 281 0.9 2.6 0.00 0.00 0.00 85 1015.3
20260901061529 75 285 0.9 2.6 0.00 0.00 0.00 85 1015.1
20260901061003 75 272 1.7 3.5 0.00 0.00 0.00 85 1015.1
20260901060503 76 270 0.9 3.5 0.00 0.00 0.00 84 1015.1
20260901060108 76 276 1.7 4.3 0.00 0.00 0.00 84 1015.2
20260901060011 76 289 1.7 4.3 0.00 0.00 0.00 84 1015.2
20260901055504 76 254 1.7 4.3 0.00 0.00 0.00 84 1015.2
20260901055003 76 262 1.7 5.2 0.00 0.00 0.00 84 1015.2
20260901054601 76 307 1.7 5.2 0.00 0.00 0.00 84 1015.2
20260901054511 76 280 1.7 5.2 0.00 0.00 0.00 84 1015.1
20260901054006 76 257 0.9 2.6 0.00 0.00 0.00 84 1015.1
20260901053508 76 265 0.9 3.5 0.00 0.00 0.00 84 1015.1
20260901053104 76 283 0.9 3.5 0.00 0.00 0.00 84 1015.2
20260901053019 76 316 0.9 3.5 0.00 0.00 0.00 84 1015.1
20260901052509 76 302 1.7 3.5 0.00 0.00 0.00 84 1015.0
20260901052009 76 263 1.7 3.5 0.00 0.00 0.00 84 1015.1
20260901051619 76 311 0.9 3.5 0.00 0.00 0.00 84 1015.2
20260901051526 76 281 0.9 3.5 0.00 0.00 0.00 83 1015.1
20260901051012 76 265 0.9 2.6 0.00 0.00 0.00 83 1015.1
20260901050513 76 272 0.9 3.5 0.00 0.00 0.00 83 1015.2
20260901050109 76 272 0.9 3.5 0.00 0.00 0.00 83 1015.3
20260901050029 76 288 0.9 3.5 0.00 0.00 0.00 83 1015.2
20260901045502 76 272 0.9 4.3 0.00 0.00 0.00 83 1015.2
20260901045003 77 277 0.9 4.3 0.00 0.00 0.00 83 1015.2
20260901044603 77 233 0.9 3.5 0.00 0.00 0.00 82 1015.3
20260901044510 77 271 0.9 3.5 0.00 0.00 0.00 82 1015.2
20260901044004 77 279 0.9 3.5 0.00 0.00 0.00 82 1015.2
20260901043506 77 265 0.9 2.6 0.00 0.00 0.00 82 1015.2
20260901043103 77 285 0.9 2.6 0.00 0.00 0.00 82 1015.4
20260901043015 77 260 0.9 2.6 0.00 0.00 0.00 82 1015.2
20260901042509 77 267 0.9 3.5 0.00 0.00 0.00 82 1015.3
20260901042007 77 248 0.9 3.5 0.00 0.00 0.00 81 1015.2
20260901041605 77 291 0.9 3.5 0.00 0.00 0.00 81 1015.4
20260901041525 77 274 1.7 3.5 0.00 0.00 0.00 81 1015.3
20260901041011 77 316 1.7 2.6 0.00 0.00 0.00 81 1015.3
20260901040511 77 266 0.9 2.6 0.00 0.00 0.00 81 1015.3
20260901040105 78 202 0.9 2.6 0.00 0.00 0.00 81 1015.4
20260901040033 78 210 0.9 2.6 0.00 0.00 0.00 81 1015.2
20260901035512 77 294 0.9 2.6 0.00 0.00 0.00 81 1015.3
20260901035011 77 255 0.9 2.6 0.00 0.00 0.00 81 1015.3
20260901034609 77 274 0.9 2.6 0.00 0.00 0.00 82 1015.5
20260901034535 77 294 0.9 2.6 0.00 0.00 0.00 82 1015.3
20260901034005 77 289 0.9 2.6 0.00 0.00 0.00 82 1015.4
20260901033503 77 335 0.9 2.6 0.00 0.00 0.00 83 1015.4
20260901033114 76 255 0.9 2.6 0.00 0.00 0.00 84 1015.5
20260901033012 76 269 0.9 2.6 0.00 0.00 0.00 84 1015.4
20260901032503 76 256 0.9 2.6 0.00 0.00 0.00 85 1015.4
20260901032009 76 276 0.0 2.6 0.00 0.00 0.00 86 1015.4
20260901031604 76 309 0.9 1.7 0.00 0.00 0.00 86 1015.4
20260901031540 76 276 0.9 1.7 0.00 0.00 0.00 86 1015.3
20260901031008 76 281 0.0 1.7 0.00 0.00 0.00 87 1015.4
20260901030509 75 148 0.0 1.7 0.00 0.00 0.00 87 1015.4
20260901030105 75 0 0.0 0.9 0.00 0.00 0.00 87 1015.5
20260901030024 75 240 0.0 0.9 0.00 0.00 0.00 87 1015.4
20260901025511 75 277 0.0 0.9 0.00 0.00 0.00 87 1015.3
20260901025012 75 273 0.0 0.9 0.00 0.00 0.00 87 1015.4
20260901024608 75 0 0.0 0.9 0.00 0.00 0.00 88 1015.5
20260901024530 75 273 0.0 0.9 0.00 0.00 0.00 88 1015.4
20260901024016 75 274 0.0 0.9 0.00 0.00 0.00 87 1015.4
20260901023521 75 278 0.0 0.0 0.00 0.00 0.00 87 1015.4
20260901023102 75 0 0.0 0.0 0.00 0.00 0.00 87 1015.5
20260901023037 75 279 0.0 0.0 0.00 0.00 0.00 87 1015.4
20260901022503 76 265 0.0 0.0 0.00 0.00 0.00 87 1015.4
20260901022003 76 265 0.0 0.0 0.00 0.00 0.00 87 1015.3
20260901021606 76 0 0.0 0.0 0.00 0.00 0.00 87 1015.3
20260901021512 76 265 0.0 0.0 0.00 0.00 0.00 87 1015.3
20260901021005 76 264 0.0 0.0 0.00 0.00 0.00 87 1015.3
20260901020509 76 264 0.0 0.0 0.00 0.00 0.00 86 1015.2
20260901020057 76 0 0.0 0.0 0.00 0.00 0.00 86 1015.3
20260901020016 76 264 0.0 0.0 0.00 0.00 0.00 86 1015.3
20260901015507 77 264 0.0 0.0 0.00 0.00 0.00 86 1015.3
20260901015016 77 269 0.0 0.0 0.00 0.00 0.00 86 1015.2
20260901014609 77 0 0.0 0.9 0.00 0.00 0.00 86 1015.2
20260901014524 77 269 0.0 0.9 0.00 0.00 0.00 86 1015.1
20260901014015 77 269 0.0 0.9 0.00 0.00 0.00 86 1015.1
20260901013514 77 294 0.0 0.9 0.00 0.00 0.00 86 1015.0
20260901013101 77 0 0.0 0.0 0.00 0.00 0.00 86 1015.0
20260901013031 77 269 0.0 0.0 0.00 0.00 0.00 86 1014.9
20260901012514 77 271 0.0 0.0 0.00 0.00 0.00 86 1014.8
20260901012018 77 271 0.0 0.0 0.00 0.00 0.00 86 1014.7
20260901011558 77 0 0.0 0.0 0.00 0.00 0.00 86 1014.8
20260901011532 77 270 0.0 0.0 0.00 0.00 0.00 86 1014.5
20260901011004 77 270 0.0 0.0 0.00 0.00 0.00 85 1014.5
20260901010503 78 276 0.0 0.0 0.00 0.00 0.00 85 1014.5
20260901010104 78 0 0.0 0.0 0.00 0.00 0.00 85 1014.7
20260901010029 78 275 0.0 0.0 0.00 0.00 0.00 85 1014.4
20260901005505 78 275 0.0 0.0 0.00 0.00 0.00 84 1014.4
20260901005011 79 275 0.0 0.0 0.00 0.00 0.00 83 1014.3
20260901004618 79 0 0.0 0.0 0.00 0.00 0.00 82 1014.5
20260901004524 79 275 0.0 0.0 0.00 0.00 0.00 81 1014.3
20260901004008 80 275 0.0 0.0 0.00 0.00 0.00 81 1014.3
20260901003512 80 275 0.0 0.0 0.00 0.00 0.00 79 1014.2
20260901003107 81 0 0.0 0.0 0.00 0.00 0.00 79 1014.4
20260901003027 81 275 0.0 0.0 0.00 0.00 0.00 78 1014.2
20260901002512 82 275 0.0 0.0 0.00 0.00 0.00 77 1014.3
20260901002017 82 275 0.0 0.0 0.00 0.00 0.00 76 1014.3
20260901001604 82 0 0.0 0.0 0.00 0.00 0.00 75 1014.3
20260901001530 82 275 0.0 0.0 0.00 0.00 0.00 75 1014.2
20260901001015 83 275 0.0 0.0 0.00 0.00 0.00 74 1014.1
20260901000521 84 275 0.0 0.0 0.00 0.00 0.00 73 1014.0
20260901000110 84 0 0.0 0.0 0.00 0.00 0.00 72 1014.1
20260901000033 84 277 0.0 0.0 0.00 0.00 0.00 72 1014.0
20260831235507 85 277 0.0 0.9 0.00 0.00 0.00 71 1013.8
20260831235007 86 278 0.0 0.9 0.00 0.00 0.00 71 1014.0
20260831234608 86 276 0.9 2.6 0.00 0.00 0.00 70 1014.0
20260831234518 86 276 0.9 2.6 0.00 0.00 0.00 70 1014.0
20260831234006 86 286 0.9 2.6 0.00 0.00 0.00 70 1013.9
20260831233508 87 285 0.9 1.7 0.00 0.00 0.00 69 1013.9
20260831233105 87 258 0.9 1.7 0.00 0.00 0.00 68 1013.9
20260831233024 87 281 0.9 1.7 0.00 0.00 0.00 68 1013.7
20260831232510 88 302 0.9 1.7 0.00 0.00 0.00 68 1013.9
20260831232014 88 279 0.9 2.6 0.00 0.00 0.00 67 1013.8
20260831231611 89 224 0.9 2.6 0.00 0.00 0.00 66 1013.8
20260831231536 89 299 0.9 2.6 0.00 0.00 0.00 66 1013.7
20260831231016 89 281 0.0 2.6 0.00 0.00 0.00 66 1013.6
20260831230515 89 295 0.9 2.6 0.00 0.00 0.00 66 1013.9
20260831230110 89 271 0.9 2.6 0.00 0.00 0.00 65 1014.0
20260831230038 89 254 0.9 2.6 0.00 0.00 0.00 66 1013.8
20260831225515 89 283 0.9 1.7 0.00 0.00 0.00 65 1013.6
20260831225018 89 279 0.9 2.6 0.00 0.00 0.00 65 1013.7
20260831224605 89 257 0.9 3.5 0.00 0.00 0.00 65 1013.9
20260831224512 89 233 0.9 3.5 0.00 0.00 0.00 65 1013.6
20260831224005 90 113 0.9 4.3 0.00 0.00 0.00 65 1013.5
20260831223507 90 297 0.9 4.3 0.00 0.00 0.00 64 1013.5
20260831223110 90 285 0.9 3.5 0.00 0.00 0.00 65 1013.7
20260831223020 90 292 0.9 3.5 0.00 0.00 0.00 64 1013.4
20260831222508 90 283 0.9 3.5 0.00 0.00 0.00 64 1013.4
20260831222010 90 250 1.7 3.5 0.00 0.00 0.00 63 1013.5
20260831221610 90 268 1.7 5.2 0.00 0.00 0.00 63 1013.8
20260831221532 90 187 1.7 5.2 0.00 0.00 0.00 64 1013.5
20260831221013 90 239 0.9 5.2 0.00 0.00 0.00 64 1013.6
20260831220514 91 309 0.9 3.5 0.00 0.00 0.00 63 1013.6
20260831220104 91 157 1.7 3.5 0.00 0.00 0.00 64 1014.0
20260831220029 91 131 1.7 3.5 0.00 0.00 0.00 64 1013.6
20260831215520 91 245 1.7 4.3 0.00 0.00 0.00 63 1013.7
20260831215016 91 267 1.7 4.3 0.00 0.00 0.00 63 1013.7
20260831214608 91 221 0.9 4.3 0.00 0.00 0.00 64 1014.1
20260831214536 91 143 0.9 4.3 0.00 0.00 0.00 64 1013.8
20260831213515 91 240 1.7 3.5 0.00 0.00 0.00 64 1013.8
20260831213114 91 176 1.7 4.3 0.00 0.00 0.00 63 1014.2
20260831213016 91 267 1.7 3.5 0.00 0.00 0.00 64 1013.8
20260831212507 91 289 1.7 4.3 0.00 0.00 0.00 64 1013.8
20260831212012 91 345 1.7 4.3 0.00 0.00 0.00 64 1013.8
20260831211606 91 160 0.9 3.5 0.00 0.00 0.00 64 1014.1
20260831211524 91 16 1.7 2.6 0.00 0.00 0.00 64 1013.8
20260831211012 91 109 1.7 3.5 0.00 0.00 0.00 65 1013.7
20260831210511 91 217 1.7 4.3 0.00 0.00 0.00 65 1013.8
20260831210103 91 305 1.7 4.3 0.00 0.00 0.00 64 1014.1
20260831210027 91 153 1.7 4.3 0.00 0.00 0.00 64 1013.8
20260831205512 92 240 1.7 4.3 0.00 0.00 0.00 65 1013.8
20260831205016 92 262 1.7 4.3 0.00 0.00 0.00 63 1013.9
20260831204605 91 212 1.7 4.3 0.00 0.00 0.00 64 1014.2
20260831204532 91 275 1.7 4.3 0.00 0.00 0.00 64 1013.9
20260831204005 91 270 1.7 4.3 0.00 0.00 0.00 63 1014.0
20260831203506 92 245 0.9 4.3 0.00 0.00 0.00 62 1014.1
20260831203107 92 315 1.7 5.2 0.00 0.00 0.00 61 1014.4
20260831203013 92 269 1.7 5.2 0.00 0.00 0.00 61 1014.2
20260831202507 92 189 1.7 5.2 0.00 0.00 0.00 62 1014.3
20260831202007 92 228 1.7 6.1 0.00 0.00 0.00 63 1014.3
20260831201606 92 231 0.9 6.1 0.00 0.00 0.00 64 1014.7
20260831201521 92 174 0.9 6.1 0.00 0.00 0.00 64 1014.4
20260831201014 92 277 0.9 4.3 0.00 0.00 0.00 63 1014.4
20260831200512 92 214 1.7 4.3 0.00 0.00 0.00 62 1014.4
20260831200108 92 355 1.7 4.3 0.00 0.00 0.00 62 1014.6
20260831200023 92 255 1.7 4.3 0.00 0.00 0.00 64 1014.4
20260831195513 92 263 1.7 4.3 0.00 0.00 0.00 63 1014.5
20260831195011 92 338 1.7 4.3 0.00 0.00 0.00 62 1014.5
20260831194640 92 132 0.9 5.2 0.00 0.00 0.00 65 1014.7
20260831194556 91 297 0.9 5.2 0.00 0.00 0.00 65 1014.5
20260831194019 91 261 1.7 5.2 0.00 0.00 0.00 60 1014.4
20260831193515 91 266 1.7 3.5 0.00 0.00 0.00 62 1014.5
20260831193101 91 95 1.7 4.3 0.00 0.00 0.00 63 1014.8
20260831193031 91 274 1.7 4.3 0.00 0.00 0.00 64 1014.6
20260831192504 91 211 1.7 4.3 0.00 0.00 0.00 62 1014.8
20260831192008 91 186 1.7 4.3 0.00 0.00 0.00 62 1014.8
20260831191608 91 147 1.7 4.3 0.00 0.00 0.00 63 1015.2
20260831191519 91 161 1.7 4.3 0.00 0.00 0.00 64 1014.9
20260831191007 91 145 2.6 4.3 0.00 0.00 0.00 62 1014.9
20260831190510 91 275 1.7 4.3 0.00 0.00 0.00 62 1015.1
20260831190122 90 229 1.7 6.1 0.00 0.00 0.00 62 1015.3
20260831190018 90 60 1.7 6.1 0.00 0.00 0.00 63 1015.1
20260831185511 90 335 1.7 6.1 0.00 0.00 0.00 64 1015.1
20260831185013 90 166 1.7 4.3 0.00 0.00 0.00 65 1015.2
20260831184611 90 299 1.7 5.2 0.00 0.00 0.00 64 1015.4
20260831184540 90 299 1.7 5.2 0.00 0.00 0.00 64 1015.2
20260831184013 90 288 1.7 6.1 0.00 0.00 0.00 63 1015.3
20260831183517 90 279 1.7 6.1 0.00 0.00 0.00 65 1015.3
20260831183107 90 250 1.7 4.3 0.00 0.00 0.00 65 1015.7
20260831183028 90 200 1.7 4.3 0.00 0.00 0.00 67 1015.4
20260831182513 90 213 1.7 3.5 0.00 0.00 0.00 64 1015.5
20260831182016 89 345 1.7 4.3 0.00 0.00 0.00 63 1015.7
20260831181606 89 275 1.7 5.2 0.00 0.00 0.00 67 1015.8
20260831181535 89 274 1.7 5.2 0.00 0.00 0.00 65 1015.8
20260831181006 89 226 1.7 5.2 0.00 0.00 0.00 64 1015.8
20260831180507 89 231 1.7 4.3 0.00 0.00 0.00 66 1015.8
20260831180111 89 224 0.9 3.5 0.00 0.00 0.00 64 1015.8
20260831180023 89 191 0.9 2.6 0.00 0.00 0.00 67 1015.8
20260831175507 88 160 1.7 3.5 0.00 0.00 0.00 65 1015.8
20260831175008 88 318 1.7 4.3 0.00 0.00 0.00 67 1015.8
20260831174634 88 115 1.7 4.3 0.00 0.00 0.00 69 1015.8
20260831174520 88 224 1.7 4.3 0.00 0.00 0.00 67 1015.9
20260831174010 88 148 1.7 4.3 0.00 0.00 0.00 63 1015.9
20260831173509 88 247 1.7 3.5 0.00 0.00 0.00 68 1015.9
20260831173105 88 294 1.7 3.5 0.00 0.00 0.00 67 1015.9
20260831173027 88 245 1.7 3.5 0.00 0.00 0.00 65 1016.0
20260831172511 88 295 0.9 6.1 0.00 0.00 0.00 69 1016.0
20260831172017 87 266 0.9 6.1 0.00 0.00 0.00 68 1016.1
20260831171609 86 293 1.7 5.2 0.00 0.00 0.00 67 1016.2
20260831171541 86 274 1.7 5.2 0.00 0.00 0.00 67 1016.2
20260831171014 86 242 1.7 5.2 0.00 0.00 0.00 66 1016.3
20260831170522 86 267 0.9 3.5 0.00 0.00 0.00 69 1016.3
20260831170105 85 290 0.9 3.5 0.00 0.00 0.00 71 1016.3
20260831170100 85 285 1.7 3.5 0.00 0.00 0.00 71 1016.3
20260831165502 85 313 0.9 4.3 0.00 0.00 0.00 68 1016.4
20260831165007 85 260 1.7 4.3 0.00 0.00 0.00 68 1016.4
20260831164626 85 284 1.7 4.3 0.00 0.00 0.00 68 1016.5
20260831164517 85 263 1.7 3.5 0.00 0.00 0.00 68 1016.4
20260831164009 85 238 1.7 4.3 0.00 0.00 0.00 68 1016.4
20260831163509 85 278 2.6 4.3 0.00 0.00 0.00 67 1016.4
20260831163106 85 310 2.6 4.3 0.00 0.00 0.00 66 1016.4
20260831163028 85 241 2.6 4.3 0.00 0.00 0.00 67 1016.4
20260831162513 85 200 1.7 4.3 0.00 0.00 0.00 68 1016.4
20260831162015 85 283 1.7 6.1 0.00 0.00 0.00 67 1016.4
20260831161608 84 288 2.6 6.1 0.00 0.00 0.00 67 1016.4
20260831161531 84 238 2.6 6.1 0.00 0.00 0.00 67 1016.4
20260831161014 84 231 2.6 4.3 0.00 0.00 0.00 67 1016.3
20260831160515 84 290 1.7 5.2 0.00 0.00 0.00 69 1016.3
20260831160105 84 256 1.7 5.2 0.00 0.00 0.00 69 1016.3
20260831160034 84 296 0.9 5.2 0.00 0.00 0.00 71 1016.4
20260831155518 83 302 1.7 4.3 0.00 0.00 0.00 71 1016.4
20260831155018 82 310 2.6 3.5 0.00 0.00 0.00 69 1016.4
20260831154634 82 296 1.7 5.2 0.00 0.00 0.00 71 1016.4
20260831154537 82 229 1.7 5.2 0.00 0.00 0.00 69 1016.4
20260831154008 82 314 2.6 5.2 0.00 0.00 0.00 69 1016.4
20260831153509 82 274 1.7 5.2 0.00 0.00 0.00 72 1016.4
20260831153120 81 278 1.7 4.3 0.00 0.00 0.00 74 1016.2
20260831153018 80 262 1.7 4.3 0.00 0.00 0.00 74 1016.4
20260831152510 80 278 1.7 4.3 0.00 0.00 0.00 71 1016.4
20260831152011 80 323 0.9 4.3 0.00 0.00 0.00 72 1016.4
20260831151613 80 291 1.7 4.3 0.00 0.00 0.00 71 1016.3
20260831151528 80 296 1.7 4.3 0.00 0.00 0.00 71 1016.3
20260831151013 80 307 1.7 4.3 0.00 0.00 0.00 72 1016.3
20260831150512 80 307 1.7 5.2 0.00 0.00 0.00 73 1016.3
20260831150109 79 288 1.7 5.2 0.00 0.00 0.00 72 1016.2
20260831150032 79 297 1.7 5.2 0.00 0.00 0.00 72 1016.3
20260831145514 79 271 2.6 5.2 0.00 0.00 0.00 73 1016.2
20260831145015 79 295 1.7 3.5 0.00 0.00 0.00 73 1016.2
20260831144607 79 285 1.7 3.5 0.00 0.00 0.00 73 1016.2
20260831144535 79 285 1.7 3.5 0.00 0.00 0.00 72 1016.2
20260831144015 79 292 1.7 4.3 0.00 0.00 0.00 71 1016.2
20260831143517 79 296 1.7 4.3 0.00 0.00 0.00 72 1016.3
20260831143107 79 255 2.6 7.8 0.00 0.00 0.00 70 1016.2
20260831143016 79 316 2.6 7.8 0.00 0.00 0.00 72 1016.2
20260831142509 79 278 2.6 7.8 0.00 0.00 0.00 73 1016.0
20260831142012 78 255 2.6 5.2 0.00 0.00 0.00 73 1016.1
20260831141605 78 282 1.7 4.3 0.00 0.00 0.00 74 1016.1
20260831141524 78 331 1.7 4.3 0.00 0.00 0.00 74 1016.1
20260831141012 78 293 2.6 4.3 0.00 0.00 0.00 75 1016.1
20260831140513 77 276 2.6 4.3 0.00 0.00 0.00 75 1016.2
20260831140101 77 292 1.7 4.3 0.00 0.00 0.00 76 1016.2
20260831140032 77 292 1.7 4.3 0.00 0.00 0.00 76 1016.1
20260831135515 76 153 1.7 3.5 0.00 0.00 0.00 77 1016.1
20260831135014 75 281 1.7 4.3 0.00 0.00 0.00 77 1016.1
20260831134614 75 245 1.7 4.3 0.00 0.07 0.00 76 1016.1
20260831134531 75 259 1.7 4.3 0.00 0.01 0.00 76 1016.0
20260831134015 75 304 2.6 5.2 0.00 0.02 0.00 76 1016.2
20260831133518 75 271 0.9 5.2 0.00 0.06 0.00 77 1015.9
20260831133109 75 259 1.7 4.3 0.00 0.07 0.00 77 1016.0
20260831133036 75 282 1.7 4.3 0.00 0.07 0.00 76 1016.0
20260831132516 74 284 1.7 4.3 0.00 0.07 0.00 77 1016.0
20260831132020 74 113 0.9 3.5 0.00 0.07 0.00 78 1016.0
20260831131601 74 264 1.7 5.2 0.00 0.07 0.00 78 1016.2
20260831131517 74 288 1.7 5.2 0.00 0.07 0.00 78 1016.0
20260831131014 73 288 1.7 5.2 0.00 0.07 0.00 79 1016.1
20260831130510 73 247 1.7 3.5 0.00 0.07 0.00 80 1016.0
20260831130104 72 307 0.9 2.6 0.00 0.07 0.00 81 1016.1
20260831130024 72 261 0.9 2.6 0.00 0.07 0.00 81 1015.9
20260831125513 71 165 0.9 2.6 0.00 0.07 0.00 82 1015.9
20260831125017 71 217 0.9 3.5 0.00 0.07 0.00 83 1015.9
20260831124606 70 328 0.9 3.5 0.00 0.07 0.00 83 1016.0
20260831124532 70 232 0.9 3.5 0.00 0.07 0.00 83 1016.0
20260831124020 70 258 0.9 3.5 0.00 0.07 0.00 82 1015.9
20260831123514 71 293 0.9 2.6 0.00 0.07 0.00 82 1015.9
20260831123106 71 295 0.9 2.6 0.00 0.07 0.00 82 1015.9
20260831123030 71 234 0.9 2.6 0.00 0.07 0.00 83 1015.8
20260831122518 70 235 0.9 2.6 0.00 0.07 0.00 83 1015.8
20260831122019 70 237 0.9 2.6 0.00 0.07 0.00 84 1015.8
20260831121626 70 287 0.9 2.6 0.00 0.07 0.00 84 1015.8
20260831121532 70 300 0.9 2.6 0.00 0.07 0.00 84 1015.7
20260831121016 70 287 0.9 2.6 0.00 0.07 0.00 84 1015.6
20260831120519 70 341 0.9 3.5 0.00 0.07 0.00 84 1015.6
20260831120115 69 257 0.9 3.5 0.00 0.07 0.00 84 1015.6
20260831120031 69 303 0.9 3.5 0.00 0.07 0.00 84 1015.6
20260831115509 69 286 0.9 3.5 0.00 0.07 0.00 84 1015.5
20260831115011 69 306 0.9 2.6 0.00 0.07 0.00 84 1015.5
20260831114624 69 290 0.9 3.5 0.00 0.07 0.00 83 1015.5
20260831114531 69 292 0.9 3.5 0.00 0.07 0.00 83 1015.4
20260831114003 70 287 0.9 3.5 0.00 0.07 0.00 83 1015.3
20260831113504 70 274 1.7 2.6 0.00 0.07 0.00 83 1015.3
20260831113125 70 270 0.9 3.5 0.00 0.07 0.00 83 1015.4
20260831113007 70 276 0.9 3.5 0.00 0.07 0.00 83 1015.3
20260831112506 70 285 0.9 4.3 0.00 0.07 0.00 83 1015.3
20260831112003 70 277 1.7 4.3 0.00 0.07 0.00 83 1015.3
20260831111604 70 279 1.7 3.5 0.00 0.07 0.00 83 1015.4
20260831111523 70 319 1.7 3.5 0.00 0.07 0.00 83 1015.3
20260831111010 70 221 0.9 3.5 0.00 0.07 0.00 83 1015.3
20260831110508 69 288 1.7 3.5 0.00 0.07 0.00 83 1015.2
20260831110106 69 290 0.9 2.6 0.00 0.07 0.00 83 1015.3
20260831110018 69 297 0.9 2.6 0.00 0.07 0.00 83 1015.3
20260831105507 69 217 0.9 3.5 0.00 0.07 0.00 84 1015.3
20260831105011 69 257 1.7 3.5 0.00 0.07 0.00 83 1015.3